HS1AXC-1 Weather Reports


time (UTC)temp
F
wind
direction
speed
knots
gust
knots
rain 1hr
in
rain 24hr
in
rain mn
in
humidity
%
barometer
mb
20260504160225 89 0 0.0 0.0 0.00 0.00 0.00 93 1011.0
20260504150158 89 0 0.0 0.0 0.00 0.00 0.00 91 1012.0
20260504141008 89 0 0.0 0.0 0.00 0.00 0.00 92 1011.0
20260504130155 88 0 0.0 0.0 0.00 0.00 0.00 86 1009.0
20260504081445 99 0 0.0 0.0 0.00 0.00 0.00 59 1007.0
20260504080423 102 0 0.0 0.0 0.00 0.00 0.00 50 1007.0
20260504070211 103 0 0.0 0.0 0.00 0.00 0.00 50 1007.0
20260504060138 102 0 0.0 0.0 0.00 0.00 0.00 49 1008.0
20260504045017 100 0 0.0 0.0 0.00 0.00 0.00 56 1010.0
20260504043955 100 0 0.0 0.0 0.00 0.00 0.00 56 1010.0
20260504043117 101 0 0.0 0.0 0.00 0.00 0.00 56 1010.0
20260504042055 100 0 0.0 0.0 0.00 0.00 0.00 56 1010.0
20260504041033 99 0 0.0 0.0 0.00 0.00 0.00 57 1010.0
20260504035905 99 0 0.0 0.0 0.00 0.00 0.00 59 1010.0
20260504034843 100 0 0.0 0.0 0.00 0.00 0.00 57 1010.0
20260504033821 101 0 0.0 0.0 0.00 0.00 0.00 55 1010.0
20260504032758 101 0 0.0 0.0 0.00 0.00 0.00 59 1010.0
20260504031736 100 0 0.0 0.0 0.00 0.00 0.00 61 1010.0
20260504030714 100 0 0.0 0.0 0.00 0.00 0.00 61 1011.0
20260504025652 99 0 0.0 0.0 0.00 0.00 0.00 63 1011.0
20260504024630 99 0 0.0 0.0 0.00 0.00 0.00 58 1011.0
20260504023608 98 0 0.0 0.0 0.00 0.00 0.00 61 1011.0
20260504022546 98 0 0.0 0.0 0.00 0.00 0.00 67 1011.0
20260504021524 99 0 0.0 0.0 0.00 0.00 0.00 66 1011.0
20260504020502 97 0 0.0 0.0 0.00 0.00 0.00 68 1011.0
20260504015440 97 0 0.0 0.0 0.00 0.00 0.00 70 1011.0
20260504014418 96 0 0.0 0.0 0.00 0.00 0.00 72 1011.0
20260504013356 97 0 0.0 0.0 0.00 0.00 0.00 71 1011.0
20260504012334 97 0 0.0 0.0 0.00 0.00 0.00 70 1011.0
20260504011312 96 0 0.0 0.0 0.00 0.00 0.00 73 1011.0
20260504010250 96 0 0.0 0.0 0.00 0.00 0.00 71 1011.0
20260504005736 96 0 0.0 0.0 0.00 0.00 0.00 73 1011.0
20260504004714 95 0 0.0 0.0 0.00 0.00 0.00 74 1011.0
20260504003652 94 0 0.0 0.0 0.00 0.00 0.00 77 1010.0
20260504002630 93 0 0.0 0.0 0.00 0.00 0.00 77 1010.0
20260504001608 93 0 0.0 0.0 0.00 0.00 0.00 77 1010.0
20260504000546 93 0 0.0 0.0 0.00 0.00 0.00 80 1010.0
20260503235524 93 0 0.0 0.0 0.00 0.00 0.00 80 1010.0
20260503234502 93 0 0.0 0.0 0.00 0.00 0.00 80 1010.0
20260503233439 92 0 0.0 0.0 0.00 0.00 0.00 81 1010.0
20260503232417 92 0 0.0 0.0 0.00 0.00 0.00 82 1010.0
20260503231355 92 0 0.0 0.0 0.00 0.00 0.00 82 1010.0
20260503230333 92 0 0.0 0.0 0.00 0.00 0.00 82 1010.0
20260503225311 92 0 0.0 0.0 0.00 0.00 0.00 82 1010.0
20260503224249 92 0 0.0 0.0 0.00 0.00 0.00 83 1009.0
20260503223227 92 0 0.0 0.0 0.00 0.00 0.00 82 1009.0
20260503222205 93 0 0.0 0.0 0.00 0.00 0.00 81 1009.0
20260503221143 93 0 0.0 0.0 0.00 0.00 0.00 81 1009.0
20260503220121 93 0 0.0 0.0 0.00 0.00 0.00 80 1009.0
20260503215059 93 0 0.0 0.0 0.00 0.00 0.00 79 1009.0
20260503214037 95 0 0.0 0.0 0.00 0.00 0.00 79 1008.0
20260503213023 94 0 0.0 0.0 0.00 0.00 0.00 79 1008.0
20260503212020 94 0 0.0 0.0 0.00 0.00 0.00 80 1008.0
20260503210700 93 0 0.0 0.0 0.00 0.00 0.00 82 1008.0
20260503205638 94 0 0.0 0.0 0.00 0.00 0.00 81 1008.0
20260503204616 95 0 0.0 0.0 0.00 0.00 0.00 78 1008.0
20260503203554 93 0 0.0 0.0 0.00 0.00 0.00 81 1008.0
20260503202532 94 0 0.0 0.0 0.00 0.00 0.00 79 1008.0
20260503201510 95 0 0.0 0.0 0.00 0.00 0.00 78 1008.0
20260503200448 95 0 0.0 0.0 0.00 0.00 0.00 77 1008.0
20260503195503 94 0 0.0 0.0 0.00 0.00 0.00 78 1008.0
20260503194441 93 0 0.0 0.0 0.00 0.00 0.00 80 1009.0
20260503193419 95 0 0.0 0.0 0.00 0.00 0.00 75 1009.0
20260503192357 95 0 0.0 0.0 0.00 0.00 0.00 77 1009.0
20260503191335 94 0 0.0 0.0 0.00 0.00 0.00 77 1009.0
20260503190313 96 0 0.0 0.0 0.00 0.00 0.00 75 1009.0
20260503185251 95 0 0.0 0.0 0.00 0.00 0.00 76 1009.0
20260503184229 95 0 0.0 0.0 0.00 0.00 0.00 77 1009.0
20260503183207 96 0 0.0 0.0 0.00 0.00 0.00 76 1009.0
20260503182145 95 0 0.0 0.0 0.00 0.00 0.00 77 1009.0
20260503181123 95 0 0.0 0.0 0.00 0.00 0.00 78 1009.0
20260503180101 95 0 0.0 0.0 0.00 0.00 0.00 79 1009.0
20260503175039 96 0 0.0 0.0 0.00 0.00 0.00 77 1009.0
20260503174017 96 0 0.0 0.0 0.00 0.00 0.00 78 1009.0
20260503172955 96 0 0.0 0.0 0.00 0.00 0.00 78 1009.0
20260503172153 94 0 0.0 0.0 0.00 0.00 0.00 81 1009.0
20260503171131 96 0 0.0 0.0 0.00 0.00 0.00 77 1009.0
20260503170109 96 0 0.0 0.0 0.00 0.00 0.00 76 1009.0